Погода в Таузаре

Тунис     33°55′16″N   8°07′30″E
темп.,
°C
ветер,
м/с
пор.,
м/с
влажн.,
%
обл.,
%
осадки,
мм/ч
давл.,
гПа
погр.,
м
5 августа, чт
чт501:00+32вюв44210 0.0 101030
04:00+30всв44220 0.0 101025
07:00+32в69193 0.0 1012166
10:00+37вюв88235 0.0 1013774
13:00+43ююв5685 0.0 10111559
16:00+45юз3660 0.0 10082745
19:00+42ю3470 0.0 100715
22:00+30в813540 0.0 1010261
6 августа, пт
пт601:00+28всв914610 0.0 1011296
04:00+27всв611510 0.0 1009214
07:00+28всв59440 0.0 1010308
10:00+35вюв77260 0.0 1011726
13:00+40вюв54190 0.0 10091135
16:00+43ю23130 0.0 10061897
19:00+40в33150 0.0 100615
22:00+31в915450 0.0 1007252
7 августа, сб
сб701:00+28в915520 0.0 1008321
04:00+27всв611530 0.0 1008204
07:00+28в712500 0.0 1008363
10:00+36вюв77290 0.0 1009671
13:00+42юв44150 0.0 10071202
16:00+45ююз23100 0.0 10051938
19:00+41в33110 0.0 100515
22:00+32вюв712420 0.0 1007163
8 августа, вс
вс801:00+30в611462 0.0 1008168
04:00+30в59460 0.0 1008114
07:00+31в59410 0.0 1009193
10:00+40вюв65200 0.0 1011732
13:00+44вюв55130 0.0 10091226
16:00+47вюв4380 0.0 10082765
19:00+43в45100 0.0 100829
22:00+35в915310 0.0 1011231
9 августа, пн
пн901:00+32в814360 0.0 1012262
04:00+30всв611440 0.0 1012160
07:00+30всв611420 0.0 1014337
10:00+38вюв78240 0.0 1015724
13:00+43вюв77140 0.0 10141269
16:00+46в55100 0.0 10121813
19:00+41в812140 0.0 1012207
22:00+33в814260 0.0 1014226